EW7899 Weather Reports


Display with metric or nautical units.
time (UTC)temp
F
wind
direction
speed
MPH
gust
MPH
rain 1hr
in
rain 24hr
in
rain mn
in
humidity
%
barometer
mb
20260509124552 45 359 0.0 0.0 0.00 0.00 0.00 66 1009.4
20260509123048 42 256 0.0 0.0 0.00 0.00 0.00 71 1009.5
20260509121549 40 359 0.0 1.0 0.00 0.00 0.00 80 1009.7
20260509120038 38 255 0.0 1.0 0.00 0.00 0.00 82 1009.7
20260509114537 35 359 0.0 0.0 0.00 0.00 0.00 88 1009.7
20260509113030 33 359 0.0 1.0 0.00 0.00 0.00 89 1009.7
20260509111530 32 359 0.0 0.0 0.00 0.00 0.00 90 1009.6
20260509110029 31 255 0.0 0.0 0.00 0.00 0.00 90 1009.7
20260509104529 30 359 0.0 0.0 0.00 0.00 0.00 90 1009.7
20260509103028 30 253 0.0 2.0 0.00 0.00 0.00 89 1009.6
20260509101530 30 253 0.0 0.0 0.00 0.00 0.00 90 1009.7
20260509100027 30 254 0.0 2.0 0.00 0.00 0.00 90 1009.5
20260509094532 30 253 0.0 0.0 0.00 0.00 0.00 90 1009.3
20260509093026 30 253 0.0 0.0 0.00 0.00 0.00 90 1009.2
20260509091527 30 253 0.0 0.0 0.00 0.00 0.00 89 1009.1
20260509090030 30 253 0.0 0.0 0.00 0.00 0.00 89 1009.2
20260509084526 30 252 0.0 0.0 0.00 0.00 0.00 89 1009.2
20260509083024 30 253 0.0 0.0 0.00 0.00 0.00 90 1009.3
20260509081528 30 253 0.0 0.0 0.00 0.00 0.00 89 1009.4
20260509080022 30 253 0.0 0.0 0.00 0.00 0.00 88 1009.3
20260509074521 30 359 0.0 0.0 0.00 0.00 0.00 88 1009.2
20260509073035 31 253 0.0 0.0 0.00 0.00 0.00 89 1009.2
20260509071524 31 253 0.0 0.0 0.00 0.00 0.00 88 1009.2
20260509070033 31 253 0.0 0.0 0.00 0.00 0.00 89 1009.4
20260509064516 31 254 0.0 0.0 0.00 0.00 0.00 89 1009.4
20260509063018 31 359 0.0 0.0 0.00 0.00 0.00 88 1009.5
20260509061514 31 255 0.0 4.0 0.00 0.00 0.00 88 1009.5
20260509060019 31 243 0.0 0.0 0.00 0.00 0.00 87 1009.5
20260509054511 31 241 0.0 2.0 0.00 0.00 0.00 87 1009.6
20260509053009 32 225 0.0 2.0 0.00 0.00 0.00 87 1009.5
20260509051507 32 189 0.0 4.0 0.00 0.00 0.00 87 1009.6
20260509050006 32 189 0.0 0.0 0.00 0.00 0.00 86 1009.4
20260509044559 32 186 0.0 0.0 0.00 0.00 0.00 85 1009.4
20260509043058 33 185 0.0 0.0 0.00 0.00 0.00 85 1009.4
20260509041555 33 186 0.0 0.0 0.00 0.00 0.00 85 1009.4
20260509040052 33 182 0.0 0.0 0.00 0.00 0.00 84 1009.3
20260509034552 34 182 0.0 0.0 0.00 0.00 0.00 84 1009.1
20260509033050 34 181 0.0 1.0 0.00 0.00 0.00 83 1009.3
20260509031547 35 164 0.0 0.0 0.00 0.00 0.00 82 1009.1
20260509030052 35 162 0.0 0.0 0.00 0.00 0.00 81 1009.1
20260509024546 36 153 0.0 0.0 0.00 0.00 0.00 80 1009.0
20260509023045 36 154 0.0 1.0 0.00 0.00 0.00 78 1009.1
20260509021544 37 153 0.0 0.0 0.00 0.00 0.00 76 1009.0
20260509020050 38 153 0.0 0.0 0.00 0.00 0.00 75 1008.8
20260509014548 39 154 0.0 0.0 0.00 0.00 0.00 73 1008.8
20260509013041 40 154 0.0 0.0 0.00 0.00 0.00 70 1008.5
20260509011538 42 153 0.0 0.0 0.00 0.00 0.00 68 1008.4
20260509010036 43 154 0.0 0.0 0.00 0.00 0.00 65 1008.1
20260509004536 44 154 0.0 0.0 0.00 0.00 0.00 64 1007.9
20260509003040 45 154 0.0 0.0 0.00 0.00 0.00 65 1007.6
20260509001531 46 154 0.0 2.0 0.00 0.00 0.00 63 1007.5
20260509000031 46 154 0.0 2.0 0.00 0.00 0.00 59 1007.4
20260508234532 47 152 0.0 2.0 0.00 0.00 0.00 55 1007.3
20260508233030 48 140 0.0 5.0 0.00 0.00 0.00 55 1007.3
20260508231530 48 295 0.0 6.0 0.00 0.00 0.00 54 1007.2
20260508230029 49 208 0.0 4.0 0.00 0.00 0.00 53 1007.0
20260508224532 50 304 0.0 7.0 0.00 0.00 0.00 50 1007.0
20260508223034 50 292 0.0 1.0 0.00 0.00 0.00 51 1007.0
20260508221527 50 259 0.0 9.0 0.00 0.00 0.00 46 1007.0
20260508220027 50 291 6.0 20.0 0.00 0.00 0.00 43 1007.1
20260508214527 50 303 6.0 10.0 0.00 0.00 0.00 46 1007.1
20260508213027 50 295 2.0 11.0 0.00 0.00 0.00 46 1007.0
20260508211527 49 314 0.0 11.0 0.00 0.00 0.00 45 1007.0
20260508210026 50 311 7.0 11.0 0.00 0.00 0.00 46 1006.8
20260508204525 50 359 0.0 18.0 0.00 0.00 0.00 43 1006.8
20260508203024 50 359 0.0 8.0 0.00 0.00 0.00 43 1006.6
20260508201527 51 359 5.0 14.0 0.00 0.00 0.00 43 1006.7
20260508200023 49 302 8.0 20.0 0.00 0.00 0.00 44 1007.0
20260508194520 49 255 9.0 18.0 0.00 0.00 0.00 46 1007.0
20260508193021 49 320 9.0 21.0 0.00 0.00 0.00 48 1006.9
20260508191527 50 285 7.0 15.0 0.00 0.00 0.00 46 1006.8
20260508190026 49 269 1.0 12.0 0.00 0.00 0.00 48 1006.8
20260508184517 49 112 0.0 6.0 0.00 0.00 0.00 51 1007.0
20260508183017 48 359 1.0 13.0 0.00 0.00 0.00 53 1007.3
20260508181519 49 359 8.0 16.0 0.00 0.00 0.00 44 1007.3
20260508180014 49 359 4.0 15.0 0.00 0.00 0.00 44 1007.1
20260508174512 47 283 0.0 13.0 0.00 0.00 0.00 48 1007.2
20260508173011 48 314 11.0 18.0 0.00 0.00 0.00 45 1007.2
20260508171514 48 316 7.0 13.0 0.00 0.00 0.00 46 1007.2
20260508170011 48 287 6.0 13.0 0.00 0.00 0.00 48 1007.1
20260508164508 48 297 11.0 16.0 0.00 0.00 0.00 47 1007.1
20260508163012 48 341 7.0 13.0 0.00 0.00 0.00 48 1007.2
20260508161505 47 298 8.0 20.0 0.00 0.00 0.00 54 1007.3
20260508160004 46 305 4.0 14.0 0.00 0.00 0.00 56 1007.4
20260508154505 46 359 11.0 18.0 0.00 0.00 0.00 56 1007.3
20260508153004 46 257 6.0 12.0 0.00 0.00 0.00 54 1007.3
20260508151505 46 359 8.0 14.0 0.00 0.00 0.00 52 1007.1
20260508150005 47 315 12.0 16.0 0.00 0.00 0.00 52 1007.0
20260508144501 46 318 4.0 20.0 0.00 0.00 0.00 56 1007.0
20260508143002 46 291 10.0 15.0 0.00 0.00 0.00 53 1007.0
20260508141621 45 285 7.0 13.0 0.00 0.00 0.00 57 1007.1
20260508134618 47 320 11.0 20.0 0.00 0.00 0.00 55 1007.2
20260508133100 46 303 9.0 15.0 0.00 0.00 0.00 61 1007.3
20260508131552 45 359 9.0 21.0 0.00 0.00 0.00 62 1007.4
20260508130049 44 292 5.0 10.0 0.00 0.00 0.00 69 1007.3